Location: Unspecified
(43.8044°N, 11.0278°E)
Time: 13:46:19
(UTC+02:00)

CZ-3 Stage 3 - Visible Passes

Search period start: 01 May 2016 00:00
Search period end: 11 May 2016 00:00
Orbit: 403 x 34801 km, 30.3° (Epoch: 01 May)

Date Brightness Start Highest point End Pass type
(mag) Time Alt. Az. Time Alt. Az. Time Alt. Az.
02 May 5.0 03:50:03 25° SSW 03:51:58 26° S 03:56:56 10° SE visible
02 May 6.6 20:01:44 10° S 00:21:58 - ESE 23:50:36 23° S visible
05 May 4.9 03:41:52 26° SSW 03:43:39 27° S 03:48:39 10° SE visible
05 May 6.6 19:39:55 10° S 00:13:46 - ESE 23:46:40 25° S visible
08 May 4.9 03:33:36 27° SSW 03:35:19 28° S 03:40:21 10° SE visible
08 May 6.6 19:19:16 10° S 00:05:30 - ESE 23:42:47 26° S visible
